Regional Weather Roundup
Issued by NWS

Home | Current Version | Previous Version | Text Only | Print | Product List | Glossary Off
Versions: 1 2 3 4 5 6 7 8 9 10 11 12 13 14 15 16 17 18 19 20 21 22 23 24 25 26 27 28 29 30 31 32 33 34 35 36 37 38 39 40 41 42 43 44 45 46 47 48 49 50

000
ASUS43 KMKX 232000
RWRWI

WISCONSIN REGIONAL WEATHER ROUNDUP
NATIONAL WEATHER SERVICE MILWAUKEE/SULLIVAN WI
300 PM CDT WED APR 23 2014

NOTE: "FAIR" INDICATES FEW OR NO CLOUDS BELOW 12,000 FEET WITH NO
SIGNIFICANT WEATHER AND/OR OBSTRUCTIONS TO VISIBILITY.

WIZ001-002-006>008-014>016-023>028-232100-
NORTHWEST WISCONSIN

CITY           SKY/WX    TMP DP  RH WIND       PRES   REMARKS
SUPERIOR ARPT  CLOUDY    42  29  60 NE9       30.09S
ASHLAND        PTSUNNY   49  32  52 N12       30.10F
HAYWARD        CLOUDY    52  23  32 VRB7      30.07F
SIREN          CLOUDY    51  24  34 SE7       30.06F
RICE LAKE      CLOUDY    51  23  34 E12G17    30.08F
LADYSMITH      CLOUDY    51  26  37 SE12      30.11F
EAU CLAIRE     NOT AVBL
MENOMONIE      CLOUDY    51  26  37 E8        30.07F
NEW RICHMOND   CLOUDY    50  27  42 S10       30.06F
OSCEOLA        CLOUDY    50  29  43 E15       30.07F
$$

WIZ003>005-009-010-017-018-232100-
NORTH CENTRAL WISCONSIN

CITY           SKY/WX    TMP DP  RH WIND       PRES   REMARKS
WOODRUFF       CLOUDY    57  23  27 S9        30.09F
RHINELANDER    PTSUNNY   52  21  29 E7        30.09F
EAGLE RIVER    CLOUDY    53  16  22 SE5       30.09F
LAND O LAKES   CLOUDY    53  17  23 E7        30.10F
PHILLIPS       CLOUDY    53  25  33 SE7       30.08F
TOMAHAWK       CLOUDY    53  22  30 CALM      30.09F
MEDFORD        CLOUDY    47  26  42 SE8       30.10S
MERRILL        CLOUDY    51  24  34 SE9       30.10F
$$

WIZ029-030-035-036-043>047-232100-
CENTRAL WISCONSIN

CITY           SKY/WX    TMP DP  RH WIND       PRES   REMARKS
WAUSAU         CLOUDY    50  23  34 S10       30.09F
MOSINEE        SUNNY     48  25  40 SE9G16    30.12F
MARSHFIELD     CLOUDY    50  24  36 SE9G18    30.10F
STEVENS POINT  CLOUDY    48  22  35 SE8       30.12F
WAUPACA        CLOUDY    52  21  30 SE6       30.14F
WAUTOMA        NOT AVBL
WISC RAPIDS    CLOUDY    52  18  26 SE5       30.11F
CAMP DOUGLAS   NOT AVBL
$$

WIZ011>013-019>022-031-037>040-048>050-232100-
NORTHEAST WISCONSIN

CITY           SKY/WX    TMP DP  RH WIND       PRES   REMARKS
ANTIGO         PTSUNNY   50  24  36 S10       30.11F
STURGEON BAY   MOSUNNY   45  10  24 NE8       30.18S
GREEN BAY      PTSUNNY   48  25  40 NE9       30.16F
MANITOWOC      NOT AVBL
APPLETON       PTSUNNY   48  21  34 VRB6      30.14F
CLINTONVILLE   CLOUDY    50  23  34 SE9       30.14F
OSHKOSH        CLOUDY    49  24  37 E6        30.14F
$$

WIZ032>034-041-042-053>061-232100-
SOUTHWEST WISCONSIN

CITY           SKY/WX    TMP DP  RH WIND       PRES   REMARKS
LA CROSSE      LGT RAIN  52  26  36 SE10      30.09S
SPARTA         CLOUDY    55  20  25 SE10      30.10S
VIROQUA        FAIR      49  23  35 SE9       30.09F
BOSCOBEL       CLOUDY    54  25  32 E8        30.10F
PRAIRIE DU CHI CLOUDY    51  27  38 E12       30.10R
PLATTEVILLE    PTSUNNY   52  27  38 E9G17     30.10F
$$

WIZ056-057-062-063-064-067-068-232100-
SOUTH CENTRAL WISCONSIN

CITY           SKY/WX    TMP DP  RH WIND       PRES   REMARKS
BARABOO/DELLS  PTSUNNY   53  25  33 SE10      30.10F
LONE ROCK      NOT AVBL
WATERTOWN      PTSUNNY   53  26  35 CALM      30.12F
MADISON        CLOUDY    56  26  31 SE13G20   30.11F
MIDDLETON      FAIR      55  23  28 SE7       30.11F
MONROE         CLOUDY    54  26  33 SE12      30.10F
JANESVILLE     SUNNY     55  25  30 SE7G17    30.11F
$$

WIZ051-052-058>065-066-070>072-232100-
SOUTHEAST WISCONSIN

CITY           SKY/WX    TMP DP  RH WIND       PRES   REMARKS
MILWAUKEE      PTSUNNY   43  28  55 E6        30.18F
WAUKESHA       PTSUNNY   48  19  32 E9        30.16
MILWAUKEE/TIMM SUNNY     46  21  36 E5        30.17F
RACINE         MOSUNNY   46  26  45 E8        30.18F
BURLINGTON     MOSUNNY   50  25  37 E10       30.14F
KENOSHA        MOSUNNY   46  24  42 E13       30.16F
FOND DU LAC    CLOUDY    50  28  42 NE9       30.14F
SHEBOYGAN      MOSUNNY   46  24  42 NE13      30.16F
WEST BEND      CLOUDY    48  23  37 E9        30.15F
JUNEAU         CLOUDY    53  18  25 E8        30.14F
$$

LSZ147-162-232100-
LAKE SUPERIOR

STATION/POSITION TIME  TEMP    WIND        PRES    WAVE
                       AIR SEA DIR/SP/G            HT/PER
                 (UTC) (F)     (DEG/KT/KT) (MB)    (FT/S)
DEVILS ISLAND    1900   36      90/  5/  7 1021.1F
PORT WING        1900   35      20/ 11/ 17 1019.3
SAXON HARBOR     1900           CALM  /  1 1020.0F
$$

LMZ867-665-643>646-232100-
LAKE MICHIGAN

STATION/POSITION TIME  TEMP    WIND        PRES    WAVE
                       AIR SEA DIR/SP/G            HT/PER
                 (UTC) (F)     (DEG/KT/KT) (MB)    (FT/S)
NORTHPORT PIER   1900   36     140/  7/  8 1022.0F
SISTER BAY       1808             CALM       N/A
KEWAUNEE LAKESHO 1900   38      70/  5/  7 1023.0S
SHEBOYGAN LAKESH 1900   36      70/  6/  6 1023.4S
PORT WASHINGTON  1900   38      70/  6/  8 1023.0F
MILWAUKEE LAKESH 1900   36      50/  9/  9   N/A
KENOSHA   LAKESH 1900   38      50/  7/  8   N/A
$$

TC  - TEMPERATURE IN CELSIUS
VSB - VISIBILITY IN STATUTE MILES
WCI - WIND CHILL INDEX
HX  - HEAT INDEX




USA.gov is the U.S. government's official web portal to all federal, state and local government web resources and services.